Location: Chevoux
(46.3801°N, 4.9476°E)
Time: 18:02:04
(UTC+00:00)

Cosmos 2112 Rocket - Visible Passes

Search period start: 14 May 2021 00:00
Search period end: 24 May 2021 00:00
Orbit: 755 x 787 km, 74.1° (Epoch: 13 May)

Date Brightness Start Highest point End Pass type
(mag) Time Alt. Az. Time Alt. Az. Time Alt. Az.
14 May 5.8 19:54:07 10° N 19:57:51 19° NE 20:01:35 10° E visible
14 May 4.0 21:35:17 10° NNW 21:40:40 79° WSW 21:42:46 38° S visible
14 May 6.4 23:20:38 10° WNW 23:21:50 11° W 23:23:03 10° WSW visible
15 May 4.1 20:59:18 10° NNW 21:04:39 67° ENE 21:07:33 27° SE visible
15 May 6.0 22:42:39 10° NW 22:46:12 18° W 22:47:54 16° WSW visible
16 May 4.7 20:23:25 10° N 20:28:32 43° ENE 20:32:23 17° SE visible
16 May 5.4 22:05:55 10° NW 22:10:29 29° W 22:12:44 21° SW visible
17 May 5.3 19:47:41 10° N 19:52:19 29° NE 19:56:55 10° ESE visible
17 May 4.8 21:29:33 10° NNW 21:34:39 46° WSW 21:37:35 24° SSW visible
18 May 4.2 20:53:23 10° NNW 20:58:45 75° WSW 21:02:28 20° S visible
19 May 4.1 20:17:23 10° NNW 20:22:45 70° ENE 20:27:23 14° SSE visible
19 May 6.2 22:00:52 10° NW 22:04:15 17° W 22:07:38 10° SW visible
20 May 4.6 19:41:30 10° N 19:46:38 45° ENE 19:51:45 10° SE visible
20 May 5.7 21:24:04 10° NW 21:28:33 27° W 21:32:42 11° SSW visible
21 May 5.0 20:47:40 10° NNW 20:52:44 44° WSW 20:57:41 10° S visible
22 May 4.3 20:11:29 10° NNW 20:16:50 71° WSW 20:22:08 10° S visible
23 May 6.4 21:19:06 10° WNW 21:22:19 16° W 21:25:30 10° SW visible
